SL-14 R/B

Last updated on Mon Jun 22 2026 00:02:13 GMT+0000 (Coordinated Universal Time)

1 20511U 90018B 26171.38680630 .00000308 00000+0 35499-4 0 9992 2 20511 82.5212 127.1170 0017580 112.0162 248.2922 14.82217894937794
UTC large
Height (km)
Speed (km/s)
/
Latitude / Longitude
Inclination (degrees)
Orbital Period (minutes)
Azimuth
Elevation
Range (km)
Doppler Factor

Next 0 passes for location: London (51.5072 / 0.1276)

No passes found over London.
SL-14 R/B